Location: Goettingen
(51.5300°N, 9.9433°E)
Time: 20:53:37
(UTC+02:00)

ISS - Pass Details

Date: 20 July 2019
Orbit: 409 x 418 km, 51.6° (Epoch: 20 July)

Event Time Altitude Azimuth Distance (km) Brightness Sun altitude
Rises 23:00:11 0° 250° (WSW) 2,350 0.2 -11.1°
Reaches altitude 10° 23:02:17 10° 248° (WSW) 1,488 -0.8 -11.3°
Maximum altitude 23:05:36 69° 165° (SSE) 446 -3.9 -11.6°
Drops below altitude 10° 23:08:55 10° 81° (E) 1,486 -1.2 -11.8°
Sets 23:11:01 0° 79° (E) 2,348 -0.2 -12.0°
